Weather History for Provo, UT

Change the Weather History Date:

Sunday, January 12, 2014

  Actual Average Record
Temperature  
Mean Temperature 32 °F -  
Max Temperature 41 °F 34 °F 55 °F (1990)
Min Temperature 23 °F 21 °F 3 °F (1993)
Degree Days  
Heating Degree Days 33    
Moisture  
Dew Point 25 °F    
Average Humidity 74    
Maximum Humidity 87    
Minimum Humidity 52    
Precipitation  
Precipitation 0.01 in - - ()
Sea Level Pressure  
Sea Level Pressure 30.08 in    
Wind  
Wind Speed 11 mph (WNW)    
Max Wind Speed 24 mph    
Max Gust Speed 25 mph    
Visibility 11 miles    
Events      
Averages and records for this station are not official NWS values.
T = Trace of Precipitation, MM = Missing Value Source: NWS Daily Summary

Daily Weather History Graph

Daily Weather History Graph

Search for Another Location

Airport:

Trip Planner

Search our weather history database for the weather conditions in past years. The results will help you decide how hot, cold, wet, or windy it might be!

Date:

Astronomy

Jan. 12, 2014 Rise Set
Actual Time 7:48 AM MST 5:22 PM MST
Civil Twilight 7:18 AM MST 5:52 PM MST
Nautical Twilight 6:44 AM MST 6:26 PM MST
Astronomical Twilight 6:12 AM MST 6:58 PM MST
Moon 2:53 PM MST (1/12) 4:50 AM MST (1/12)
Length of Visible Light 10h 34m
Length of Day
9h 33m
Waxing Gibbous, 90% of the Moon is Illuminated
Jan 12
Waxing Gibbous
Jan 15
Full
Jan 23
Last Quarter
Jan 30
New
Feb 6
First Quarter

Hourly Weather History & Observations

Time (MST) Temp. Windchill Dew Point Humidity Pressure Visibility Wind Dir Wind Speed Gust Speed Precip Events Conditions
12:15 AM 41.0 °F 33.5 °F 28.4 °F 61% 29.80 in 10.0 mi SW 13.8 mph - N/A   Overcast
12:35 AM 39.2 °F 32.0 °F 30.2 °F 70% 29.79 in 10.0 mi SW 11.5 mph - N/A   Overcast
12:55 AM 37.4 °F 27.8 °F 30.2 °F 75% 29.83 in 10.0 mi NNW 17.3 mph 25.3 mph N/A   Mostly Cloudy
1:15 AM 35.6 °F 23.7 °F 30.2 °F 81% 29.83 in 10.0 mi NW 24.2 mph - N/A   Mostly Cloudy
1:35 AM 35.6 °F 25.2 °F 30.2 °F 81% 29.83 in 10.0 mi WNW 18.4 mph - N/A   Mostly Cloudy
1:55 AM 35.6 °F 25.9 °F 30.2 °F 81% 29.85 in 10.0 mi WNW 16.1 mph - N/A   Mostly Cloudy
2:15 AM 35.6 °F 27.5 °F 30.2 °F 81% 29.87 in 10.0 mi NW 11.5 mph - N/A   Overcast
2:35 AM 35.6 °F 26.2 °F 30.2 °F 81% 29.89 in 10.0 mi West 15.0 mph - N/A   Overcast
2:55 AM 35.6 °F 26.6 °F 30.2 °F 81% 29.92 in 10.0 mi West 13.8 mph - N/A   Overcast
3:15 AM 33.8 °F 25.8 °F 30.2 °F 87% 29.93 in 10.0 mi WNW 10.4 mph - N/A   Overcast
3:35 AM 33.8 °F 29.6 °F 30.2 °F 87% 29.91 in 10.0 mi West 4.6 mph - N/A   Overcast
3:55 AM 33.8 °F 26.4 °F 30.2 °F 87% 29.92 in 10.0 mi NW 9.2 mph - N/A   Mostly Cloudy
4:15 AM 33.8 °F 25.3 °F 30.2 °F 87% 29.93 in 2.0 mi NNW 11.5 mph - N/A   Overcast
4:35 AM 33.8 °F 24.8 °F 30.2 °F 87% 29.93 in 10.0 mi NW 12.7 mph - 0.01 in   Scattered Clouds
4:55 AM 33.8 °F 25.8 °F 28.4 °F 81% 29.94 in 10.0 mi WNW 10.4 mph - 0.01 in   Partly Cloudy
5:15 AM 32.0 °F 26.4 °F 26.6 °F 80% 29.96 in 10.0 mi NNW 5.8 mph - N/A   Clear
5:35 AM 32.0 °F 26.4 °F 28.4 °F 87% 29.96 in 10.0 mi NNW 5.8 mph - N/A   Clear
5:55 AM 32.0 °F 26.4 °F 28.4 °F 87% 29.96 in 10.0 mi North 5.8 mph - N/A   Clear
6:15 AM 33.8 °F 27.0 °F 26.6 °F 75% 29.97 in 10.0 mi North 8.1 mph - N/A   Mostly Cloudy
6:35 AM 33.8 °F 23.9 °F 26.6 °F 75% 29.98 in 10.0 mi NNW 15.0 mph - N/A   Overcast
6:55 AM 33.8 °F 25.3 °F 24.8 °F 70% 29.98 in 10.0 mi NNW 11.5 mph - N/A   Mostly Cloudy
7:13 AM 32.0 °F 24.8 °F 23.0 °F 69% 29.99 in 10.0 mi NNW 8.1 mph - N/A   Mostly Cloudy
7:15 AM 32.0 °F 24.8 °F 24.8 °F 75% 29.99 in 10.0 mi NNW 8.1 mph - N/A   Scattered Clouds
7:55 AM 33.8 °F 25.3 °F 21.2 °F 60% 30.03 in 15.0 mi NW 11.5 mph - N/A   Mostly Cloudy
8:53 AM 32.0 °F 23.0 °F 21.2 °F 64% 30.07 in 15.0 mi WNW 11.5 mph - N/A   Mostly Cloudy
9:53 AM 33.8 °F 25.3 °F 21.2 °F 60% 30.12 in 15.0 mi WNW 11.5 mph 18.4 mph N/A   Mostly Cloudy
10:56 AM 33.8 °F 26.4 °F 24.8 °F 70% 30.16 in 15.0 mi West 9.2 mph - N/A   Mostly Cloudy
11:55 AM 33.8 °F 27.7 °F 24.8 °F 70% 30.17 in 15.0 mi West 6.9 mph - N/A   Mostly Cloudy
12:55 PM 33.8 °F 25.3 °F 24.8 °F 70% 30.17 in 15.0 mi WSW 11.5 mph - N/A   Mostly Cloudy
1:57 PM 33.8 °F 28.6 °F 23.0 °F 65% 30.18 in 15.0 mi WNW 5.8 mph - N/A   Mostly Cloudy
2:49 PM 35.6 °F 28.0 °F 19.4 °F 52% 30.20 in 15.0 mi NW 10.4 mph - N/A   Mostly Cloudy
3:59 PM 35.6 °F 30.7 °F 19.4 °F 52% 30.24 in 15.0 mi NW 5.8 mph - N/A   Mostly Cloudy
4:47 PM 35.6 °F - 23.0 °F 60% 30.27 in 15.0 mi Calm Calm - N/A   Mostly Cloudy
5:47 PM 32.0 °F 27.5 °F 21.2 °F 64% 30.27 in 15.0 mi South 4.6 mph - N/A   Mostly Cloudy
6:59 PM 32.0 °F 28.7 °F 21.2 °F 64% 30.31 in 15.0 mi Variable 3.5 mph - N/A   Mostly Cloudy
8:54 PM 30.2 °F 26.7 °F 21.2 °F 69% 30.32 in 15.0 mi Variable 3.5 mph - N/A   Mostly Cloudy
9:15 PM 28.4 °F 22.2 °F 19.4 °F 69% 30.33 in 10.0 mi NW 5.8 mph - N/A   Partly Cloudy
9:35 PM 26.6 °F - 19.4 °F 74% 30.34 in 10.0 mi Calm Calm - N/A   Partly Cloudy
9:55 PM 23.0 °F 15.8 °F 15.8 °F 74% 30.35 in 10.0 mi WNW 5.8 mph - N/A   Mostly Cloudy
10:15 PM 24.8 °F 19.1 °F 19.4 °F 80% 30.35 in 10.0 mi SE 4.6 mph - N/A   Overcast
10:35 PM 26.6 °F - 21.2 °F 80% 30.36 in 10.0 mi Calm Calm - N/A   Mostly Cloudy
10:55 PM 26.6 °F 20.0 °F 19.4 °F 74% 30.37 in 10.0 mi North 5.8 mph - N/A   Mostly Cloudy
11:15 PM 26.6 °F 22.6 °F 21.2 °F 80% 30.38 in 10.0 mi SSW 3.5 mph - N/A   Overcast
11:35 PM 26.6 °F 20.0 °F 21.2 °F 80% 30.38 in 10.0 mi South 5.8 mph - N/A   Overcast
11:55 PM 28.4 °F 23.3 °F 21.2 °F 74% 30.38 in 10.0 mi SW 4.6 mph - N/A   Overcast